Location: Bratislava
(0.0000°N, 17.1167°E)
Time: 05:15:09
(UTC+01:00)

BREEZE-M DEB (TANK) - Pass Details

Date: 24 January 2021
Orbit: 353 x 16373 km, 49.4° (Epoch: 03 March)

Event Time Altitude Azimuth Distance (km) Brightness Sun altitude
Rises 18:59:21 0° 217° (SW) 16,397 10.8 -13.1°
Reaches altitude 10° 19:20:12 10° 216° (SW) 11,846 9.8 -18.0°
Maximum altitude 19:52:08 85° 129° (SE) 1,890 4.8 -25.5°
Enters shadow 19:55:03 45° 44° (NE) 1,826 4.4 -26.2°
